www.pogodaiklimat.ru

Погода и климат >> Архив погоды >> Австралия >> Западная Австралия >> Джайлс


ПОГОДА в Джайлсе

  • Прогноз погоды в Джайлсе
  • Монитор погоды в Джайлсе

АРХИВ ПОГОДЫ в Джайлсе

Время (UTC), дата Ветер
(напр.,м/с)
 
Видим.   Явления Облачность Т
(С)
Тd
(С)
f
(%)
Тe
(С)
Тes
(С)
Комфортность P
(гПа)
Po
(гПа)
Тmin
(С)
Tmax
(С)
R
(мм)
R24
(мм)
S
(см)
19 14.03 В 5 40 км 5/3 2000 м
[Cu med, cong Ac As]
+27.6 +9.5 32 +28 +28 жарко 1010.2 944.4
20 14.03 В 5 н/о н/о +27.3 +9.5 33 +28 +28 жарко 1010.4 944.6
21 14.03 ЮВ 3 н/о н/о +26.9 +9.9 34 +27 +27 жарко 1011.2 945.3
22 14.03 ЮВ 2 40 км осадки на расстоянии 9/3 2000 м
[Sc Ac As]
+26.4 +11.1 38 +27 +27 жарко 1011.5 945.6
23 14.03 ЮВ 2 н/о н/о +27.5 +10.6 35 +28 +28 жарко 1012.5 946.5
00 15.03 ЮВ 5 н/о н/о +29.2 +10.0 30 +29 +29 жарко 1013.0 947.0
01 15.03 В 5 40 км осадки на расстоянии 9/3 2000 м
[Sc Ac As]
+30.2 +10.0 29 +30 +30 жарко 1013.2 947.2 +26.2
02 15.03 В 5 н/о н/о +31.9 +8.4 23 +31 +31 жарко 1012.9 946.9
03 15.03 ЮВ 6 н/о н/о +32.3 +8.5 23 +31 +31 жарко 1012.5 946.5
04 15.03 ЮВ 4 40 км слаб. ливневой дождь 9/1
[Cu med, cong Ac As]
+32.9 +8.5 22 +32 +32 жарко 1011.5 945.6
05 15.03 СВ 7 н/о н/о +31.8 +9.3 25 +31 +31 жарко 1011.0 945.1
06 15.03 ЮВ 6 н/о н/о +31.5 +9.9 26 +31 +31 жарко 1010.8 944.9
07 15.03 В 5 30 км осадки на расстоянии 9/1 1500 м
[Cu med, cong Ac As]
+30.9 +9.7 27 +30 +30 жарко 1011.0 945.1
08 15.03 С 5 н/о н/о +26.7 +14.9 48 +29 +29 жарко 1011.5 945.6
09 15.03 В 3 н/о н/о +27.7 +14.2 44 +30 +30 жарко 1011.1 945.2
10 15.03 В 5 40 км 9/0
[Ac As]
+28.0 +12.0 37 +29 +29 жарко 1010.6 944.8
11 15.03 В 4 н/о н/о +28.2 +11.4 35 +29 +29 жарко 1011.0 945.1
12 15.03 В 4 н/о н/о +27.8 +11.0 35 +29 +29 жарко 1011.0 945.1
13 15.03 В 3 н/о 9/0
[]
+27.8 +10.8 35 +29 +29 жарко 1011.1 945.2 +33.8
14 15.03 В 2 н/о н/о +27.9 +11.2 35 +29 +29 жарко 1011.2 945.3
15 15.03 В 3 н/о н/о +27.7 +11.1 36 +29 +29 жарко 1010.3 944.5
16 15.03 ЮЗ 2 н/о 9/0
[]
+26.6 +10.9 37 +27 +27 жарко 1010.0 944.2
17 15.03 ЮВ 3 н/о н/о +26.0 +11.0 39 +27 +27 жарко 1009.0 943.3
18 15.03 В 1 н/о н/о +26.0 +11.4 40 +27 +27 жарко 1008.9 943.2
19 15.03 ЮВ 4 40 км 9/0
[Ac As]
+24.8 +10.7 41 +26 +26 жарко 1008.2 942.5
20 15.03 В 4 н/о н/о +25.8 +10.2 37 +27 +27 жарко 1008.4 942.7
21 15.03 В 3 н/о н/о +25.9 +11.3 40 +27 +27 жарко 1009.3 943.5
22 15.03 В 3 40 км осадки на расстоянии {ливн. осадки} 10/0
[Ac As]
+25.7 +11.5 41 +27 +27 жарко 1010.1 944.3
23 15.03 СЗ 1 н/о н/о +27.0 +12.1 40 +28 +28 жарко 1011.4 945.5
00 16.03 СЗ 3 н/о н/о +28.2 +11.6 36 +29 +29 жарко 1011.9 946.0
01 16.03 СВ 4 40 км {ливн. осадки} 3/0
[Ac As Ci fib]
+30.8 +11.0 30 +31 +31 жарко 1012.0 946.1 +24.8
02 16.03 С 6 н/о н/о +33.5 +4.7 16 +31 +31 жарко 1011.5 945.6
03 16.03 С 7 н/о н/о +35.3 +3.8 14 +32 +32 жарко 1010.6 944.8
04 16.03 С 6 40 км 4/1
[Cu hum Ac trans Ci fib]
+35.8 +3.9 14 +33 +33 жарко 1009.6 943.8 0.0
05 16.03 С 6 н/о н/о +36.8 +2.1 11 +33 +33 жарко 1008.5 942.8
06 16.03 СЗ 7 н/о н/о +35.8 +2.4 12 +32 +32 жарко 1008.0 942.3
07 16.03 С 3 40 км 9/1
[Cu med, cong Ac As]
+35.8 +5.7 16 +33 +33 жарко 1007.3 941.7
08 16.03 СЗ 2 н/о н/о +35.2 +3.3 14 +32 +32 жарко 1007.3 941.7
09 16.03 ЮЗ 1 н/о н/о +34.8 +8.0 19 +33 +33 жарко 1007.8 942.1
10 16.03 Ю 7 40 км 9/3 2000 м
[Cu med, cong Ac As]
+31.4 +8.4 24 +30 +30 жарко 1008.4 942.7
11 16.03 Ю 7 н/о н/о +29.8 +9.7 29 +30 +30 жарко 1009.6 943.8
12 16.03 ЮВ 6 н/о н/о +28.6 +10.3 32 +29 +29 жарко 1010.8 944.9
13 16.03 Ю 7 н/о 10/0
[]
+27.3 +11.2 37 +28 +28 жарко 1011.0 945.1 +38.3
14 16.03 Ю 5 н/о н/о +26.7 +11.7 39 +28 +28 жарко 1011.3 945.4
15 16.03 ЮВ 6 н/о н/о +26.1 +11.8 41 +27 +27 жарко 1011.3 945.4
16 16.03 ЮВ 6 н/о 9/0
[]
+25.9 +11.5 41 +27 +27 жарко 1010.8 944.9
17 16.03 ЮВ 6 н/о н/о +25.6 +11.5 41 +27 +27 жарко 1010.6 944.8
18 16.03 Ю 6 н/о н/о +25.0 +12.0 44 +27 +27 жарко 1011.7 945.8
19 16.03 ЮВ 7 40 км осадки на расстоянии 6/0
[Ac As]
+23.7 +13.3 52 +26 +26 жарко 1011.1 945.2
20 16.03 ЮВ 9 н/о н/о +23.8 +13.0 51 +26 +26 жарко 1011.1 945.2
21 16.03 ЮВ 8 н/о н/о +23.9 +12.3 48 +26 +26 жарко 1011.1 945.2
22 16.03 В 6 н/о слаб. морось 9/0 2000 м
[Ac As]
+23.8 +12.8 50 +26 +26 жарко 1012.0 946.1
23 16.03 Ю 4 н/о н/о +20.9 +17.1 79 +25 +25 комфорт 1013.9 947.8
00 17.03 В 4 н/о н/о +21.0 +17.7 81 +25 +25 комфорт 1013.6 947.6
01 17.03 В 3 н/о слаб. морось 10/0 2000 м
[Ac As]
+22.4 +18.2 77 +28 +28 душно 1014.2 948.1 +20.4
02 17.03 В 5 н/о н/о +24.6 +16.3 60 +28 +28 душно 1013.2 947.2
03 17.03 В 6 н/о н/о +26.8 +12.3 41 +28 +28 жарко 1012.2 946.3
04 17.03 В 4 20 км слаб. дождь 9/4 1000 м
[Sc Ac As]
+28.1 +12.1 37 +29 +29 жарко 1011.5 945.6 2
05 17.03 В 4 н/о н/о +27.9 +12.3 38 +29 +29 жарко 1011.2 945.3
06 17.03 ЮВ 5 н/о н/о +29.8 +8.9 27 +29 +29 жарко 1010.2 944.4
07 17.03 ЮВ 5 30 км осадки на расстоянии 9/3 2000 м
[Sc Ac As]
+30.2 +9.8 28 +30 +30 жарко 1009.8 944.0
08 17.03 ЮВ 5 н/о н/о +30.8 +8.2 24 +30 +30 жарко 1009.6 943.8
09 17.03 ЮВ 4 н/о н/о +30.8 +8.5 25 +30 +30 жарко 1009.5 943.7
10 17.03 ЮВ 3 30 км осадки на расстоянии 9/3 2000 м
[Sc Ac As]
+29.1 +13.1 37 +30 +30 жарко 1009.8 944.0
11 17.03 ЮВ 3 н/о н/о +27.9 +14.2 43 +30 +30 жарко 1010.3 944.5
12 17.03 ЮВ 3 н/о н/о +27.5 +13.7 43 +30 +30 жарко 1011.2 945.3
13 17.03 ЮВ 3 н/о 10/0
[]
+27.5 +12.0 38 +29 +29 жарко 1011.5 945.6 +31.2
14 17.03 ЮВ 4 н/о н/о +26.3 +12.7 43 +28 +28 жарко 1011.0 945.1
15 17.03 ЮВ 3 н/о н/о +25.9 +12.0 42 +27 +27 жарко 1010.8 944.9
16 17.03 ЮВ 3 н/о 9/0
[]
+26.1 +10.6 38 +27 +27 жарко 1010.8 944.9
17 17.03 ЮВ 4 н/о н/о +25.0 +11.4 43 +26 +26 жарко 1010.8 944.9
18 17.03 ЮВ 2 н/о н/о +23.4 +11.6 47 +26 +26 жарко 1010.8 944.9
19 17.03 ЮВ 3 40 км 5/0
[Ac As]
+23.1 +11.7 49 +26 +26 жарко 1010.8 944.9
20 17.03 ЮВ 4 н/о н/о +22.2 +10.5 47 +24 +24 комфорт 1010.8 944.9
21 17.03 ЮВ 3 н/о н/о +22.8 +7.5 37 +24 +24 комфорт 1011.2 945.3
22 17.03 ЮВ 4 40 км 8/0
[As op Cs]
+24.7 +2.8 24 +24 +24 комфорт 1011.4 945.5
23 17.03 В 6 н/о н/о +27.4 -1.2 15 +25 +25 комфорт 1012.1 946.2
00 18.03 В 7 н/о н/о +31.0 -6.5 8 +27 +27 жарко 1012.5 946.5
01 18.03 СВ 7 40 км 5/0
[Ac As Ci fib]
+32.1 -8.3 7 +28 +28 жарко 1012.5 946.5 +21.0
02 18.03 СВ 7 н/о н/о +33.6 -7.7 7 +29 +29 жарко 1011.7 945.8
03 18.03 СВ 7 н/о н/о +35.1 -7.7 6 +31 +31 жарко 1010.9 945.0
04 18.03 В 7 40 км 3/0
[Ac As]
+35.6 -9.1 5 +31 +31 жарко 1009.7 943.9
05 18.03 СВ 5 н/о н/о +36.9 -7.0 6 +33 +33 жарко 1008.5 942.8
06 18.03 В 5 н/о н/о +35.8 -7.4 6 +31 +31 жарко 1008.0 942.3
07 18.03 СВ 4 40 км осадки на расстоянии 9/1 2000 м
[Sc Ac As]
+35.9 -4.4 7 +32 +32 жарко 1007.8 942.2
08 18.03 В 3 н/о н/о +35.5 -4.7 7 +31 +31 жарко 1007.8 942.1
09 18.03 ЮВ 3 н/о н/о +34.8 -3.7 8 +31 +31 жарко 1008.1 942.4
10 18.03 В 3 40 км 9/1 2000 м
[Sc Ac As]
+32.4 +1.6 14 +29 +29 жарко 1008.6 942.9
11 18.03 ЮВ 4 н/о н/о +31.7 -1.5 12 +28 +28 жарко 1009.3 943.5
12 18.03 ЮВ 6 н/о н/о +30.6 +1.6 16 +28 +28 жарко 1010.0 944.2
13 18.03 ЮВ 6 н/о н/о +29.6 +2.7 18 +27 +27 жарко 1010.2 944.4 +38.1
14 18.03 ЮВ 5 н/о н/о +28.5 +3.2 20 +27 +27 жарко 1010.2 944.4
15 18.03 ЮВ 4 н/о н/о +28.3 +3.2 20 +27 +27 жарко 1009.7 943.9
16 18.03 ЮВ 4 н/о 1/0
[]
+27.5 +3.3 21 +26 +26 жарко 1009.6 943.8
17 18.03 ЮВ 4 н/о н/о +26.8 +3.2 22 +25 +25 комфорт 1009.5 943.7
18 18.03 ЮВ 5 н/о н/о +26.5 +3.3 22 +25 +25 комфорт 1009.6 943.8
19 18.03 ЮВ 3 40 км 1/0
[Ac trans]
+24.4 +4.5 28 +24 +24 комфорт 1009.8 944.0
20 18.03 ЮВ 3 н/о н/о +23.5 +5.4 31 +23 +23 комфорт 1009.9 944.1
21 18.03 ЮВ 4 н/о н/о +22.6 +5.3 32 +23 +23 комфорт 1010.3 944.5
22 18.03 ЮВ 3 40 км 5/0
[Ac trans]
+24.1 +5.2 29 +24 +24 комфорт 1010.9 945.0
23 18.03 ЮВ 5 н/о н/о +26.5 +1.6 20 +25 +25 комфорт 1011.2 945.3
00 19.03 ЮВ 4 н/о н/о +28.4 -1.3 14 +26 +26 жарко 1011.7 945.8
01 19.03 СВ 6 40 км 6/0
[Ac As]
+31.1 -3.8 10 +27 +27 жарко 1011.7 945.8 +22.5
02 19.03 СВ 6 н/о н/о +34.1 -5.1 8 +30 +30 жарко 1010.9 945.0
03 19.03 В 7 н/о н/о +35.9 -5.8 7 +32 +32 жарко 1010.0 944.2
04 19.03 СВ 6 40 км 8/0
[Ac cast]
+36.2 -5.2 7 +32 +32 жарко 1009.1 943.4
05 19.03 С 5 н/о н/о +37.0 -4.6 7 +33 +33 жарко 1008.3 942.6
06 19.03 В 3 н/о н/о +36.3 -4.8 7 +32 +32 жарко 1007.8 942.2
07 19.03 В 3 40 км 9/0
[Ac cast Cs]
+36.6 -3.7 8 +33 +33 жарко 1007.4 941.8
08 19.03 В 4 н/о н/о +35.8 -4.8 7 +32 +32 жарко 1007.7 942.0
09 19.03 В 5 н/о н/о +35.0 -3.6 8 +31 +31 жарко 1008.0 942.3
10 19.03 В 4 40 км осадки на расстоянии 9/0
[Ac As]
+33.8 -2.2 10 +30 +30 жарко 1008.5 942.8
11 19.03 СВ 3 н/о н/о +33.3 +0.5 12 +30 +30 жарко 1009.3 943.5
12 19.03 С 3 н/о н/о +32.7 -1.1 11 +29 +29 жарко 1010.1 944.3
13 19.03 В 5 н/о 10/0
[]
+32.8 +0.9 13 +30 +30 жарко 1010.4 944.6 +38.1
14 19.03 В 5 н/о н/о +31.8 +2.1 15 +29 +29 жарко 1009.7 943.9
15 19.03 В 3 н/о н/о +30.6 +2.8 17 +28 +28 жарко 1009.3 943.5
16 19.03 В 5 н/о 10/0
[]
+31.1 +0.8 14 +28 +28 жарко 1009.1 943.4
17 19.03 В 6 н/о н/о +30.1 +0.1 14 +27 +27 жарко 1008.8 943.1
18 19.03 В 6 н/о н/о +29.3 +1.0 16 +27 +27 жарко 1008.7 943.0
19 19.03 В 7 40 км 1/0
[Ac As]
+28.8 +0.6 16 +26 +26 жарко 1008.7 943.0
20 19.03 В 6 н/о н/о +28.5 +1.1 17 +26 +26 жарко 1009.1 943.4
21 19.03 В 6 н/о н/о +28.8 +0.6 16 +26 +26 жарко 1009.6 943.8
22 19.03 В 6 40 км 3/0
[Ac As]
+28.6 +1.3 17 +26 +26 жарко 1009.9 944.1
23 19.03 В 6 н/о н/о +29.9 +0.8 15 +27 +27 жарко 1010.5 944.7
00 20.03 СВ 8 н/о н/о +32.6 +0.4 13 +29 +29 жарко 1011.1 945.2
01 20.03 СВ 8 40 км 1/0
[Ac trans Ci fib]
+34.3 +1.0 12 +31 +31 жарко 1011.3 945.4 +28.3
02 20.03 СВ 7 н/о н/о +35.8 +0.7 11 +32 +32 жарко 1011.1 945.2
03 20.03 СВ 7 н/о н/о +37.8 -1.4 8 +34 +34 очень
жарко
1010.4 944.6
04 20.03 С 6 40 км 4/0
[Ac cast Cs]
+38.3 -2.4 8 +34 +34 очень
жарко
1009.5 943.7
05 20.03 СВ 4 н/о н/о +38.6 -2.4 7 +34 +34 очень
жарко
1008.5 942.8
06 20.03 В 4 н/о н/о +38.3 -1.8 8 +34 +34 очень
жарко
1007.9 942.2
07 20.03 ЮВ 4 н/о н/о +38.3 -1.3 8 +34 +34 очень
жарко
1007.4 941.8
08 20.03 СВ 6 н/о н/о +38.2 -2.1 8 +34 +34 очень
жарко
1007.7 942.0
09 20.03 В 4 н/о н/о +37.4 -1.1 9 +34 +34 очень
жарко
1007.9 942.2
10 20.03 В 3 40 км 3/0
[Ac cast]
+34.5 -1.1 10 +31 +31 жарко 1008.5 942.8
11 20.03 В 4 н/о н/о +33.0 +0.6 13 +30 +30 жарко 1009.1 943.4
12 20.03 В 4 н/о н/о +32.6 +0.4 13 +29 +29 жарко 1009.7 943.9
13 20.03 В 4 н/о н/о +32.3 +0.1 13 +29 +29 жарко 1010.0 944.2 +39.7
14 20.03 В 5 н/о н/о +32.0 +0.2 13 +29 +29 жарко 1009.7 943.9
15 20.03 В 5 н/о н/о +32.0 +0.6 13 +29 +29 жарко 1009.3 943.5
16 20.03 В 6 н/о н/о +32.2 +0.3 13 +29 +29 жарко 1008.6 942.9
17 20.03 СВ 6 н/о н/о +31.7 +0.7 14 +29 +29 жарко 1008.3 942.6
18 20.03 В 6 н/о н/о +30.8 +1.3 15 +28 +28 жарко 1008.2 942.5
19 20.03 В 6 40 км 3/0
[Ci sp]
+30.4 +1.2 15 +28 +28 жарко 1008.1 942.4
20 20.03 В 6 н/о н/о +30.2 +1.9 16 +28 +28 жарко 1008.2 942.5
21 20.03 СВ 7 н/о н/о +30.2 +2.3 17 +28 +28 жарко 1008.6 942.9
22 20.03 СВ 7 40 км 1/0
[Ci sp]
+30.2 +3.7 19 +28 +28 жарко 1009.1 943.4
23 20.03 СВ 8 н/о н/о +32.2 +3.0 16 +30 +30 жарко 1010.0 944.2
00 21.03 СВ 9 н/о н/о +33.6 +2.8 14 +31 +31 жарко 1010.5 944.7
01 21.03 СВ 8 40 км 5/0
[Ci sp]
+35.2 +3.2 14 +32 +32 жарко 1010.6 944.8 +29.5
02 21.03 СВ 8 н/о н/о +35.8 +2.3 12 +32 +32 жарко 1010.1 944.3
03 21.03 СВ 7 н/о н/о +37.5 +1.8 11 +34 +34 очень
жарко
1009.4 943.6
04 21.03 С 5 40 км 3/1
[Cu hum Ci fib]
+39.7 +0.1 8 +36 +36 очень
жарко
1008.5 942.8
05 21.03 С 5 н/о н/о +39.0 -1.1 8 +35 +35 очень
жарко
1007.7 942.0
06 21.03 В 5 н/о н/о +39.1 -1.7 8 +35 +35 очень
жарко
1006.7 941.1
07 21.03 В 4 40 км 1/1
[Cu hum Ci fib]
+39.1 -1.2 8 +35 +35 очень
жарко
1006.5 940.9
08 21.03 В 3 н/о н/о +39.3 -2.1 7 +35 +35 очень
жарко
1006.4 940.8
09 21.03 В 3 н/о н/о +38.2 -0.6 9 +34 +34 очень
жарко
1006.3 940.7
10 21.03 СВ 3 40 км 1/0
[Ac trans Ci fib]
+35.3 +2.4 13 +32 +32 жарко 1007.0 941.4
11 21.03 В 3 н/о н/о +33.7 +1.6 13 +31 +31 жарко 1007.5 941.9
12 21.03 В 4 н/о н/о +33.3 +1.0 13 +30 +30 жарко 1007.9 942.2
13 21.03 В 4 н/о н/о +32.4 +1.2 14 +29 +29 жарко 1008.2 942.5 +40.2
14 21.03 СВ 5 н/о н/о +32.9 +1.2 13 +30 +30 жарко 1008.0 942.3
15 21.03 СВ 6 н/о н/о +33.2 +2.0 14 +30 +30 жарко 1007.5 941.9
16 21.03 СВ 7 н/о н/о +32.4 +2.4 15 +30 +30 жарко 1007.3 941.7
17 21.03 СВ 8 н/о н/о +32.4 +2.4 15 +30 +30 жарко 1006.8 941.2

 

Местоположение метеостанции Джайлс (Западная Австралия, Австралия): широта -25.03 долгота 128.30 высота над уровнем моря 599 м.

В архиве по умолчанию представлена погода в Джайлсе за последнюю неделю. Архивные данные за месяц целиком и за предыдущие месяцы, начиная с января 2011 года, Вы можете получить, выбрав интересующий диапазон дат из раскрывающегося списка и нажав кнопку "Ввод!".


*Определитесь, кто Вы:
робот инопланетянин человек

Внимание! Время в таблицах - всемирное. Для получения местного времени необходимо прибавить поправку, которая равна 8 ч.

Смотрите также архив погоды в соседних городах и на ближайших метеорологических станциях:

Погода в Уорбертоне (Западная Австралия, Австралия) (212 км)
Погода в Кинторе (Северная территория, Австралия) (224 км)
Погода в Юларе (Северная территория, Австралия) (271 км)
Погода в Эрнабелле (Южная Австралия, Австралия) (413 км)
Погода в Раббит Флат (Северная территория, Австралия) (568 км)
Погода в Элис-Спрингсе (Северная территория, Австралия) (581 км)
Погода на Виноградной ферма (Северная территория, Австралия) (614 км)
Погода в Форресте (Западная Австралия, Австралия) (645 км)
Погода в Лавертоне (Западная Австралия, Австралия) (707 км)
Погода в Телфере (Западная Австралия, Австралия) (723 км)

Пояснения к столбцам:

Ветер - указаны скорость ветра в м/с - средняя за 10 мин, порывы в срок и между сроками (в фигурных скобках) и направление, откуда дует ветер: С - северный, СВ - северо-восточный, В - восточный, ЮВ - юго-восточный, Ю - южный, ЮЗ - юго-западный, З - западный, СЗ - северо-западный.
Видимость - горизонтальная дальность видимости в метрах или километрах. При видимости от 1 до 10 км при отсутствии осадков обычно наблюдается дымка, при ухудшении видимости до 1 км и менее - туман. В сухую погоду видимость может ухудшаться дымом, пылью или мглою.
Явления - указаны атмосферные явления, наблюдавшиеся в срок или в последний час перед сроком; фигурными скобками обозначены явления, наблюдавшиеся между сроками (за 1-3 часа до срока); квадратными скобками обозначены град или гололедные отложения с указанием их диаметра в мм.
Облачность - указаны через наклонную черту общая и нижняя облачность в баллах и высота нижней границы облаков в метрах; квадратными скобками обозначены формы облаков: Ci - перистые, Cs - перисто-слоистые, Cc - перисто-кучевые, Ac - высококучевые, As - высокослоистые, Sc - слоисто-кучевые, Ns - слоисто-дождевые, Cu - кучевые, Cb - кучево-дождевые. Подробнее классификацию облаков см. в Атласе облаков (PDF).
T - Температура воздуха - температура, измеренная на высоте 2 м над землей.
Td - Температура точки росы - температура, при понижении до которой содержащийся в воздухе водяной пар достигнет насыщения.
f - Относительная влажность воздуха - влажноcть воздуха, измеренная на высоте 2 м над землей.
Te - Эффективная температура - температура, которую ощущает одетый по сезону человек в тени. Характеристика душности погоды. При расчете учитывается влияние влажности воздуха и скорости ветра на теплоощущения человека.
Tes - Эффективная температура на солнце - температура, которую ощущает человек, с поправкой на солнечный нагрев. Характеристика знойности погоды. Зависит от высоты солнца над горизонтом, облачности и скорости ветра. Ночью, в пасмурную погоду, а также при ветре 12 м/с и более поправка равна нулю.
P - Атмосферное давление - приведенное к уровню моря атмосферное давление.
Po - Атмосферное давление - измеренное на уровне метеостанции атмосферное давление.
Tmin - Минимальная температура - минимум температуры воздуха на высоте 2 м над землей.
Tmax - Максимальная температура - максимум температуры воздуха на высоте 2 м над землей.
R - Количество осадков - Количество выпавших осадков за период времени, мм. При наведении курсора мыши на число - период времени, за который выпало указанное количество осадков.
R24 - Количество осадков - Количество выпавших осадков за 24 часа, мм.
S - Снежный покров - Высота снежного покрова, см. При наведении курсора мыши на число - состояние снежного покрова и степень покрытия местности в баллах.